TimeEST,TemperatureF,Dew PointF,Humidity,Sea Level PressureIn,VisibilityMPH,Wind Direction,Wind SpeedMPH,Gust SpeedMPH,PrecipitationIn,Events,Conditions,WindDirDegrees,DateUTC
12:56 AM,27.5,9.3,46,30.49,7.0,North,4.6,-,N/A,,Partly Cloudy,360,2013-01-25 05:56:00
1:56 AM,27.3,9.3,47,30.50,7.0,North,6.9,-,N/A,,Clear,10,2013-01-25 06:56:00
2:56 AM,25.5,9.7,51,30.50,7.0,North,5.8,-,N/A,,Clear,10,2013-01-25 07:56:00
3:56 AM,23.2,11.1,60,30.49,7.0,NNE,6.9,-,N/A,,Clear,20,2013-01-25 08:56:00
4:56 AM,23.7,10.8,58,30.49,-9999.0,North,8.1,-,N/A,,Clear,10,2013-01-25 09:56:00
5:07 AM,-9999,-9999,N/A,-9999,-9999.0,North,-9999.0,-,N/A,,Unknown,0,2013-01-25 10:07:00
5:56 AM,22.6,11.8,63,30.49,7.0,Calm,Calm,-,N/A,,Clear,0,2013-01-25 10:56:00
6:56 AM,24.3,12.6,61,30.48,10.0,Calm,Calm,-,N/A,,Mostly Cloudy,0,2013-01-25 11:56:00
7:56 AM,25.9,11.7,55,30.47,10.0,North,5.8,-,N/A,,Mostly Cloudy,10,2013-01-25 12:56:00
8:56 AM,27.0,8.1,45,30.46,10.0,NE,6.9,-,N/A,,Mostly Cloudy,40,2013-01-25 13:56:00
9:56 AM,35.4,15.1,43,30.44,10.0,NE,4.6,-,0.00,,Mostly Cloudy,50,2013-01-25 14:56:00
10:56 AM,34.7,17.1,49,30.42,10.0,East,5.8,-,N/A,,Mostly Cloudy,90,2013-01-25 15:56:00
11:56 AM,35.6,18.0,49,30.36,10.0,Calm,Calm,-,N/A,,Overcast,0,2013-01-25 16:56:00
12:56 PM,34.0,16.0,48,30.31,10.0,Calm,Calm,-,N/A,,Overcast,0,2013-01-25 17:56:00
1:56 PM,35.1,19.9,54,30.22,10.0,Calm,Calm,-,0.00,,Overcast,0,2013-01-25 18:56:00
2:56 PM,36.0,21.0,55,30.20,10.0,Calm,Calm,-,N/A,,Overcast,0,2013-01-25 19:56:00
3:56 PM,36.0,24.1,62,30.17,10.0,Calm,Calm,-,N/A,,Overcast,0,2013-01-25 20:56:00
4:54 PM,30.2,24.8,80,30.17,1.8,North,8.1,-,N/A,,Overcast,10,2013-01-25 21:54:00
5:27 PM,30.2,26.6,86,30.16,4.0,North,4.6,-,N/A,,Overcast,360,2013-01-25 22:27:00
5:49 PM,30.2,26.6,86,30.14,4.0,North,3.5,-,N/A,,Overcast,360,2013-01-25 22:49:00
5:56 PM,30.9,27.0,85,30.14,4.0,North,3.5,-,N/A,,Overcast,350,2013-01-25 22:56:00
7:25 PM,30.2,28.4,93,30.12,2.5,WNW,6.9,-,N/A,,Overcast,300,2013-01-26 00:25:00
7:53 PM,32.0,28.4,87,30.12,4.0,NW,6.9,-,N/A,,Overcast,320,2013-01-26 00:53:00
7:56 PM,32.0,28.9,88,30.12,4.0,NW,5.8,-,N/A,,Overcast,310,2013-01-26 00:56:00
8:56 PM,32.4,28.9,87,30.12,7.0,NNW,11.5,-,N/A,,Overcast,330,2013-01-26 01:56:00
9:03 PM,32.0,28.4,87,30.12,4.0,NNW,12.7,-,N/A,,Overcast,340,2013-01-26 02:03:00
9:56 PM,30.9,28.0,89,30.12,3.0,NNW,5.8,-,N/A,,Overcast,330,2013-01-26 02:56:00
10:56 PM,30.9,28.0,89,30.15,8.0,WNW,6.9,-,N/A,,Overcast,290,2013-01-26 03:56:00
11:56 PM,32.0,28.0,85,30.14,7.0,NW,5.8,-,N/A,,Mostly Cloudy,310,2013-01-26 04:56:00